軌道要素
Epoch 2020 Sept. 28.0 TT = JDT 2459120.5
T 2020 Sept. 12.06785 TT Rudenko
q 2.0870019 (2000.0) P Q
n 0.13883590 Peri. 238.08910 -0.28494458 +0.95804239
a 3.6937560 Node 15.44722 -0.83545414 -0.23236620
e 0.4349919 Incl. 6.68494 -0.46991805 -0.16781156
P 7.10
From 506 observations 2006 May 22-2021 June 17, mean residual 0".6.
|